Regional Weather Roundup
Issued by NWS

Home | Current Version | Previous Version | Text Only | Print | Product List | Glossary On
Versions: 1 2 3 4 5 6 7 8 9 10 11 12 13 14 15 16 17 18 19 20 21 22 23 24 25 26 27 28 29 30 31 32 33 34 35 36 37 38 39 40 41 42 43 44 45 46 47 48 49 50
000
ASCA42 TJSJ 280810
RWRPR
PUERTO RICO/U.S. VIRGIN ISLANDS HOURLY WEATHER ROUNDUP
NATIONAL WEATHER SERVICE SAN JUAN PR
400 AM AST THU JUL 28 2016

PRZ001-004-280900-
PUERTO RICO

CITY           SKY/WX    TMP DP  RH WIND       PRES   REMARKS
SAN JUAN LMM   PTCLDY    81  79  94 E5        29.99S
PONCE          CLEAR     75  72  88 CALM      29.98F
CEIBA          PTCLDY    81  75  83 E3        30.01S
$$

PRZ006-007-280900-
U.S. VIRGIN ISLANDS

CITY           SKY/WX    TMP DP  RH WIND       PRES   REMARKS
CHRISTIANSTED  CLEAR     81  75  83 NE5       29.99F
$$

HOURLY WEATHER ROUNDUP FOR THE NEWS MEDIA

CITY           SKY/WX    TMP DP  RH WIND       PRES   REMARKS
ORLANDO        CLEAR     80  75  84 SW5       30.05F
NEW YORK       PTCLDY    75  73  93 CALM      29.91F
NEWARK         PTCLDY    78  72  81 W3        29.90S
CHICAGO        PTCLDY    74  64  71 SW3       29.90F
HARTFORD       CLEAR     69  66  90 SW5       29.89R
BOSTON         CLEAR     76  64  66 W6        29.88S
DALLAS         PTCLDY    82  73  74 S7        29.93S
PHILADELPHIA   PTCLDY    77  74  90 S3        29.91S
LOS ANGELES    PTCLDY    70  64  81 W5        29.90S
WASHINGTON DC  MOCLDY    76  71  85 CALM      29.91F


USA.gov is the U.S. government's official web portal to all federal, state and local government web resources and services.